Location: Kawakawa
(35.3830°S, 174.0670°E)
Time: 10:15:19
(UTC+13:00)

Explorer 7 - Pass Details

Date: 12 December 2019
Orbit: 485 x 679 km, 50.3° (Epoch: 17 January)

Event Time Altitude Azimuth Distance (km) Brightness Sun altitude
Rises 09:46:25 0° 221° (SW) 2,589 10.0 43.0°
Reaches altitude 10° 09:49:05 10° 202° (SSW) 1,717 9.3 43.5°
Maximum altitude 09:51:55 19° 155° (SSE) 1,262 9.2 44.1°
Drops below altitude 10° 09:54:50 10° 107° (ESE) 1,762 10.4 44.7°
Sets 09:57:36 0° 89° (E) 2,681 11.1 45.3°
